CW4352 Weather Reports


time (UTC)temp
C
wind
direction
speed
KPH
gust
KPH
rain 1hr
cm
rain 24hr
cm
rain mn
cm
humidity
%
barometer
mb
20260504150705 23 39 0.0 3.2 0.00 0.00 0.00 33 1010.1
20260504141205 23 40 3.2 8.0 0.00 0.00 0.00 33 1010.5
20260504140706 23 40 0.0 4.8 0.00 0.00 0.00 33 1010.6
20260504140205 23 42 1.6 4.8 0.00 0.00 0.00 36 1010.6
20260504130705 23 43 3.2 4.8 0.00 0.00 0.00 34 1011.1
20260504120205 22 24 1.6 4.8 0.00 0.00 0.00 31 1011.6
20260504081705 20 9 1.6 4.8 0.00 0.00 0.00 40 1012.6
20260504081205 19 9 1.6 4.8 0.00 0.00 0.00 41 1012.6
20260504080705 19 9 1.6 4.8 0.00 0.00 0.00 41 1012.6
20260504060205 15 9 0.0 3.2 0.00 0.00 0.00 56 1011.8
20260504044205 12 9 1.6 4.8 0.00 0.00 0.00 47 1011.2
20260504043705 12 9 1.6 4.8 0.00 0.00 0.00 46 1011.2
20260504043206 12 9 0.0 4.8 0.00 0.00 0.00 46 1011.2
20260504041705 12 9 4.8 9.7 0.00 0.00 0.00 47 1011.2
20260504041205 12 10 3.2 8.0 0.00 0.00 0.00 49 1011.2
20260504040205 11 17 3.2 8.0 0.00 0.00 0.00 51 1011.2
20260504031205 11 19 0.0 0.0 0.00 0.00 0.00 59 1011.6
20260504030205 11 19 0.0 3.2 0.00 0.00 0.00 56 1011.6
20260504024705 11 19 0.0 3.2 0.00 0.00 0.00 57 1011.6
20260504023205 11 19 0.0 3.2 0.00 0.00 0.00 55 1011.6
20260504021705 11 19 0.0 3.2 0.00 0.00 0.00 56 1011.6
20260504021205 11 19 0.0 0.0 0.00 0.00 0.00 57 1011.6
20260504014705 12 19 1.6 4.8 0.00 0.00 0.00 62 1011.6
20260504014205 12 19 1.6 4.8 0.00 0.00 0.00 62 1011.6
20260504013205 12 19 0.0 4.8 0.00 0.00 0.00 61 1011.7
20260504011704 13 19 0.0 3.2 0.00 0.00 0.00 58 1011.7
20260504011205 13 19 0.0 1.6 0.00 0.00 0.00 57 1011.7
20260504010705 13 19 0.0 0.0 0.00 0.00 0.00 57 1011.7
20260504004205 15 19 0.0 0.0 0.00 0.00 0.00 50 1011.7
20260504003705 15 19 0.0 0.0 0.00 0.00 0.00 50 1011.7
20260504000205 15 19 0.0 4.8 0.00 0.00 0.00 48 1011.9
20260503234704 16 19 0.0 3.2 0.00 0.00 0.00 48 1011.9
20260503234205 16 19 0.0 0.0 0.00 0.00 0.00 47 1012.1
20260503231705 16 19 0.0 3.2 0.00 0.00 0.00 49 1012.1
20260503231204 16 19 0.0 3.2 0.00 0.00 0.00 49 1012.1
20260503230706 16 19 0.0 3.2 0.00 0.00 0.00 49 1012.1
20260503224204 16 19 1.6 4.8 0.00 0.00 0.00 50 1012.1
20260503223704 16 19 0.0 0.0 0.00 0.00 0.00 51 1012.1
20260503223205 16 19 0.0 1.6 0.00 0.00 0.00 51 1012.1
20260503221705 16 19 0.0 1.6 0.00 0.00 0.00 51 1012.1
20260503220706 16 19 0.0 3.2 0.00 0.00 0.00 52 1012.0
20260503220205 16 19 0.0 3.2 0.00 0.00 0.00 52 1012.0
20260503214204 16 19 1.6 4.8 0.00 0.00 0.00 53 1011.7
20260503213705 16 19 1.6 4.8 0.00 0.00 0.00 53 1011.7
20260503211204 16 19 3.2 4.8 0.00 0.00 0.00 55 1011.6
20260503204204 17 19 0.0 4.8 0.00 0.00 0.00 52 1011.6
20260503203704 17 19 1.6 3.2 0.00 0.00 0.00 53 1011.6
20260503203205 16 19 1.6 4.8 0.00 0.00 0.00 53 1011.6
20260503201705 16 19 1.6 4.8 0.00 0.00 0.00 53 1011.6
20260503194704 17 19 0.0 0.0 0.00 0.00 0.00 50 1011.4
20260503194205 17 19 0.0 0.0 0.00 0.00 0.00 50 1011.4
20260503191705 17 19 0.0 3.2 0.00 0.00 0.00 48 1011.1
20260503191204 17 19 0.0 3.2 0.00 0.00 0.00 47 1011.1
20260503190705 17 19 0.0 0.0 0.00 0.00 0.00 47 1011.1
20260503184704 18 19 0.0 0.0 0.00 0.00 0.00 47 1010.9
20260503184205 18 19 0.0 0.0 0.00 0.00 0.00 48 1010.9
20260503183204 19 19 0.0 0.0 0.00 0.00 0.00 47 1010.9
20260503180705 20 19 0.0 0.0 0.00 0.00 0.00 43 1010.6
20260503180204 20 19 0.0 1.6 0.00 0.00 0.00 43 1010.6
20260503174205 22 19 0.0 0.0 0.00 0.00 0.00 46 1010.6
20260503173204 22 19 0.0 1.6 0.00 0.00 0.00 40 1011.0
20260503171704 23 19 1.6 3.2 0.00 0.00 0.00 37 1011.0
20260503171204 23 19 0.0 0.0 0.00 0.00 0.00 41 1011.0